[[{"header":{"parameterUnit":"m.s-1","parameterCategory":1,"la1":30.2991,"la2":30.254,"lo1":-89.0895,"lo2":-89.0444,"dy":0.0017,"dx":0.0017,"nx":28,"ny":28,"refTime":"2024-09-30T21:00:00:Z","depth":0,"parameterNumber":2,"parameterNumberName":"U-component_of_WINDS"},"data":[0,0,0,0,0,0,0,0,0,0,0,0,0,0,0,0,0,0,0,0,0,0,0,0,0,0,0,0,0,0,0,0,0,0,0,0,0,0,0,0,0,0,0,0,0,0,0,0,0,0,0,0,0,0,0,0,0,0,0.5658,0.5659,0,0.577,0.5771,0.5772,0.5764,0.5763,0.5761,0.5759,0.5883,0.5888,0.5893,0,0,0,0,0,0,0,0,0,0,0,0,0,0.5445,0.5449,0.5658,0.5659,0.5661,0.577,0.5771,0.5773,0.5765,0.5763,0.5761,0.5759,0.5882,0.5887,0.5893,0,0,0,0,0,0,0,0,0,0,0,0,0,0.5546,0.5451,0.5657,0.5669,0.5672,0.5769,0.5771,0.5773,0.5765,0.5763,0.576,0.5758,0.588,0.5887,0.5894,0.599,0,0,0.5916,0.5919,0,0,0,0,0,0,0,0,0.554,0.5554,0.5666,0.5669,0.5671,0.575,0.5742,0.5846,0.5766,0.573,0.5759,0.5757,0.5842,0.5852,0.5879,0.5996,0.6001,0.5917,0.5921,0.5924,0.5927,0,0,0,0,0,0,0,0.5533,0.5549,0.5702,0.5668,0.5671,0.5672,0.5684,0.5761,0.5799,0.5733,0.5733,0.5745,0.5843,0.5872,0.5882,0.6003,0.5917,0.5923,0.5928,0.5931,0.6206,0.6209,0,0,0,0,0,0,0.5522,0.5543,0.5699,0.5706,0.5598,0.5678,0.5691,0.5728,0.5798,0.5806,0.5747,0.5745,0.5861,0.5873,0.5886,0.6005,0.5924,0.5931,0.5935,0.6203,0.6207,0.621,0,0,0,0,0,0,0.5518,0.5536,0.5694,0.5624,0.5644,0.5684,0.5726,0.5731,0.576,0.5809,0.5816,0.577,0.5859,0.5876,0.5964,0.6009,0.5935,0.5941,0.62,0.6204,0.6208,0.6241,0,0,0,0,0,0,0.5512,0.5535,0.5569,0.5625,0.5648,0.5768,0.5729,0.5735,0.5772,0.5769,0.5832,0.584,0.5858,0.5953,0.5971,0.6017,0.5947,0.6196,0.6202,0.6207,0.6237,0.6246,0.6255,0,0,0,0,0,0.5504,0.5576,0.5571,0.559,0.5692,0.577,0.5784,0.5801,0.5775,0.5812,0.5844,0.5838,0.6,0.5962,0.5982,0.6032,0.6193,0.62,0.6207,0.6232,0.6244,0.6254,0,0,0,0,0,0,0.5528,0.5583,0.5579,0.567,0.5715,0.5769,0.5816,0.5813,0.5869,0.5864,0.5886,0.59,0.5989,0.6019,0.5975,0.6129,0.6094,0.6105,0.6107,0.6118,0.6127,0.612,0.5953,0,0,0,0,0,0.5542,0.5599,0.5645,0.5722,0.5744,0.5776,0.5811,0.582,0.5869,0.5889,0.5926,0.5977,0.6039,0.608,0.614,0.624,0.6255,0.6284,0.6293,0.63,0.6311,0.6368,0.6382,0.6232,0.6232,0.6232,0,0,0.5576,0.5613,0.5648,0.5727,0.5763,0.5824,0.5792,0.5857,0.5904,0.59,0.5985,0.6014,0.6072,0.6167,0.6211,0.6195,0.6355,0.6309,0.6314,0.6321,0.6376,0.6391,0.6403,0.6236,0.6235,0.6235,0,0,0.5668,0.57,0.5768,0.5804,0.5858,0.5878,0.5895,0.5949,0.5967,0.6052,0.6051,0.6108,0.6214,0.6256,0.6291,0.6398,0.6396,0.6417,0.6466,0.6522,0.6534,0.6544,0.6585,0.6599,0.6426,0.6427,0.6427,0,0.5703,0.5791,0.5804,0.5869,0.5906,0.5901,0.5972,0.6007,0.6079,0.6106,0.6086,0.622,0.6258,0.6364,0.639,0.6417,0.6439,0.6411,0.653,0.6541,0.6551,0.6591,0.6606,0.6429,0.6429,0.6428,0.6428,0,0.5834,0.5895,0.5944,0.601,0.6052,0.612,0.6145,0.6186,0.6191,0.6215,0.6304,0.6349,0.6419,0.6444,0.6451,0.6552,0.654,0.6525,0.6491,0.6568,0.6605,0.662,0.6432,0.6431,0.6431,0.643,0,0,0.5946,0.6017,0.6035,0.6066,0.6124,0.6174,0.6242,0.6308,0.6344,0.6393,0.6454,0.6544,0.653,0.657,0.6581,0.663,0.6715,0.6609,0.6611,0.663,0.6832,0.6845,0.6862,0.6713,0.6715,0.6718,0.6828,0,0.6045,0.6164,0.6177,0.6284,0.6342,0.6339,0.6399,0.6443,0.6467,0.6523,0.655,0.6614,0.659,0.6614,0.6662,0.6694,0.6757,0.6686,0.6773,0.6776,0.6761,0.6881,0.6895,0.6997,0.6842,0.6845,0.6847,0,0.6178,0.6229,0.6341,0.6392,0.6417,0.647,0.6532,0.6584,0.6635,0.6649,0.6693,0.6698,0.6773,0.6733,0.6837,0.6789,0.6826,0.6847,0.6851,0.6863,0.6818,0.6898,0.7029,0.7046,0.6869,0.6868,0.6866,0,0.6252,0.6348,0.6428,0.6454,0.6515,0.6553,0.6581,0.6629,0.6668,0.6723,0.6749,0.6812,0.6848,0.6898,0.6922,0.689,0.7026,0.6988,0.7043,0.7043,0.7074,0.7073,0.7216,0.7093,0.7093,0.7092,0.7092,0,0.6363,0.6433,0.6461,0.6511,0.659,0.6605,0.6683,0.671,0.6753,0.681,0.6811,0.6865,0.6891,0.695,0.6969,0.7055,0.707,0.7086,0.7091,0.7088,0.7086,0.7114,0.7109,0.7096,0.7096,0.7095,0.7094,0,0.646,0.6481,0.6569,0.6618,0.6633,0.6689,0.6733,0.6783,0.6805,0.6877,0.6895,0.6932,0.7001,0.7029,0.7115,0.7128,0.7227,0.7225,0.7209,0.7211,0.7266,0.7261,0.7434,0.7459,0.7317,0.7318,0.7319,0,0.6531,0.6584,0.6639,0.6675,0.6704,0.6763,0.6802,0.6819,0.686,0.6922,0.6965,0.7034,0.709,0.7202,0.7239,0.7305,0.7306,0.7362,0.7317,0.7312,0.7311,0.7308,0.7315,0.7372,0.7373,0.7374,0.7375,0,0.6657,0.6664,0.6718,0.6777,0.6822,0.687,0.6916,0.6947,0.6972,0.7019,0.7088,0.7131,0.7218,0.7287,0.7355,0.7388,0.7388,0.7389,0.7406,0.7405,0.7394,0.7403,0.7235,0.7386,0.7385,0.7384,0.7383,0.7383,0.6745,0.6792,0.6838,0.6899,0.6935,0.6978,0.7027,0.7054,0.7112,0.7181,0.7189,0.7264,0.7316,0.7407,0.7442,0.7503,0.7489,0.7513,0.7519,0.7526,0.7531,0.7381,0.7515,0.7515,0.7515,0.7515,0.7515,0,0.6873,0.6901,0.6956,0.702,0.7069,0.7059,0.711,0.7153,0.7218,0.7264,0.7318,0.74,0.7467,0.7508,0.7576,0.7618,0.762,0.7636,0.7634,0.7643,0.7538,0.7518,0.7633,0.7633,0.7633,0.7633,0.7633,0.7633,0.6945,0.7025,0.7038,0.7137,0.7166,0.7238,0.7268,0.7309,0.7346,0.7435,0.749,0.7514,0.756,0.7631,0.7694,0.7704,0.7731,0.7749,0.7759,0.7662,0.765,0.7638,0.7619,0.7754,0.7754,0.7858,0.7859,0.786]},{"header":{"parameterUnit":"m.s-1","parameterCategory":1,"la1":30.2991,"la2":30.254,"lo1":-89.0895,"lo2":-89.0444,"dy":0.0017,"dx":0.0017,"nx":28,"ny":28,"refTime":"2024-09-30T21:00:00:Z","depth":0,"parameterNumber":3,"parameterNumberName":"V-component_of_WINDS"},"data":[0,0,0,0,0,0,0,0,0,0,0,0,0,0,0,0,0,0,0,0,0,0,0,0,0,0,0,0,0,0,0,0,0,0,0,0,0,0,0,0,0,0,0,0,0,0,0,0,0,0,0,0,0,0,0,0,0,0,-1.7216,-1.7216,0,-1.7162,-1.7161,-1.716,-1.7154,-1.7155,-1.7155,-1.7156,-1.7098,-1.7096,-1.7094,0,0,0,0,0,0,0,0,0,0,0,0,0,-1.7313,-1.7311,-1.7216,-1.7215,-1.7215,-1.7162,-1.7161,-1.716,-1.7154,-1.7155,-1.7156,-1.7156,-1.7099,-1.7097,-1.7094,0,0,0,0,0,0,0,0,0,0,0,0,0,-1.7266,-1.731,-1.7216,-1.7205,-1.7204,-1.7162,-1.7161,-1.716,-1.7154,-1.7155,-1.7156,-1.7157,-1.71,-1.7097,-1.7094,-1.7058,0,0,-1.7084,-1.7083,0,0,0,0,0,0,0,0,-1.7268,-1.7262,-1.7208,-1.7206,-1.7204,-1.7166,-1.7174,-1.7126,-1.7154,-1.7173,-1.7156,-1.7157,-1.712,-1.7115,-1.7103,-1.7055,-1.7053,-1.7084,-1.7082,-1.7081,-1.708,0,0,0,0,0,0,0,-1.7272,-1.7264,-1.7195,-1.7207,-1.7205,-1.7203,-1.7197,-1.7165,-1.7142,-1.7171,-1.7171,-1.7165,-1.7119,-1.7106,-1.7102,-1.7052,-1.7084,-1.7081,-1.7079,-1.7078,-1.6971,-1.697,0,0,0,0,0,0,-1.7277,-1.7267,-1.7196,-1.7193,-1.7239,-1.72,-1.7194,-1.7177,-1.7143,-1.7138,-1.7164,-1.7164,-1.7111,-1.7105,-1.71,-1.7054,-1.7081,-1.7078,-1.7076,-1.6972,-1.6971,-1.697,0,0,0,0,0,0,-1.7279,-1.7271,-1.7198,-1.723,-1.722,-1.7198,-1.7179,-1.7176,-1.7163,-1.7137,-1.7133,-1.7155,-1.7111,-1.7104,-1.7068,-1.7052,-1.7077,-1.7074,-1.6973,-1.6972,-1.697,-1.6964,0,0,0,0,0,0,-1.7282,-1.7272,-1.7258,-1.723,-1.7219,-1.7169,-1.7178,-1.7174,-1.7158,-1.7158,-1.7127,-1.7123,-1.7111,-1.7073,-1.7065,-1.7049,-1.7071,-1.6974,-1.6973,-1.6971,-1.6966,-1.6963,-1.696,0,0,0,0,0,-1.7286,-1.7259,-1.7258,-1.7249,-1.7202,-1.7168,-1.7161,-1.7149,-1.7156,-1.7142,-1.7126,-1.7124,-1.7056,-1.7069,-1.7061,-1.7043,-1.6975,-1.6973,-1.6971,-1.6967,-1.6963,-1.696,0,0,0,0,0,0,-1.7286,-1.7255,-1.7253,-1.7217,-1.7195,-1.7167,-1.7149,-1.7146,-1.7121,-1.7122,-1.7107,-1.71,-1.7065,-1.7051,-1.7066,-1.7006,-1.7016,-1.7012,-1.7016,-1.7013,-1.701,-1.7013,-1.7069,0,0,0,0,0,-1.7282,-1.7257,-1.7231,-1.7201,-1.7191,-1.7172,-1.7156,-1.7149,-1.7125,-1.7116,-1.7097,-1.7073,-1.7046,-1.7029,-1.7003,-1.6964,-1.6957,-1.6948,-1.6945,-1.6943,-1.6939,-1.6916,-1.6911,-1.6962,-1.6962,-1.6962,0,0,-1.7273,-1.7253,-1.7238,-1.7201,-1.7183,-1.7157,-1.7164,-1.7136,-1.7116,-1.7111,-1.7076,-1.7061,-1.7034,-1.6997,-1.6979,-1.6984,-1.6923,-1.694,-1.6939,-1.6936,-1.6913,-1.6908,-1.6904,-1.6961,-1.6961,-1.6961,0,0,-1.7242,-1.7226,-1.7198,-1.718,-1.7154,-1.7141,-1.7135,-1.7107,-1.7097,-1.7062,-1.7057,-1.7033,-1.6988,-1.6968,-1.6952,-1.6915,-1.6912,-1.6907,-1.6892,-1.687,-1.6866,-1.6862,-1.6847,-1.6842,-1.6903,-1.6903,-1.6903,0,-1.7234,-1.7196,-1.7184,-1.7157,-1.714,-1.7135,-1.7106,-1.7089,-1.7055,-1.7043,-1.7049,-1.6991,-1.6973,-1.693,-1.6921,-1.6909,-1.69,-1.6909,-1.6867,-1.6863,-1.686,-1.6845,-1.684,-1.6903,-1.6903,-1.6903,-1.6903,0,-1.7186,-1.7159,-1.714,-1.7108,-1.7089,-1.7061,-1.7045,-1.7027,-1.7021,-1.7008,-1.6971,-1.6949,-1.6918,-1.6908,-1.6902,-1.6864,-1.6867,-1.687,-1.688,-1.6855,-1.6841,-1.6835,-1.6902,-1.6902,-1.6902,-1.6903,0,0,-1.7153,-1.7115,-1.7108,-1.7093,-1.7063,-1.7042,-1.7013,-1.6983,-1.6968,-1.6945,-1.6919,-1.6881,-1.6884,-1.6866,-1.6858,-1.6838,-1.6808,-1.6844,-1.6843,-1.6836,-1.6763,-1.676,-1.6754,-1.6807,-1.6806,-1.6805,-1.6765,0,-1.7119,-1.7068,-1.7057,-1.7013,-1.6988,-1.6983,-1.6958,-1.6936,-1.6923,-1.6899,-1.6884,-1.6857,-1.6863,-1.6852,-1.6833,-1.6816,-1.6793,-1.6819,-1.6782,-1.6781,-1.6787,-1.6747,-1.6743,-1.6706,-1.676,-1.6759,-1.6758,0,-1.7071,-1.7047,-1.7,-1.6973,-1.6962,-1.694,-1.6911,-1.6888,-1.6864,-1.6855,-1.6835,-1.6829,-1.6798,-1.6811,-1.6768,-1.6786,-1.677,-1.676,-1.6758,-1.6753,-1.6767,-1.6739,-1.6694,-1.6688,-1.675,-1.6751,-1.6751,0,-1.705,-1.7006,-1.6972,-1.6959,-1.6927,-1.6911,-1.6897,-1.6873,-1.6856,-1.6831,-1.6819,-1.6791,-1.6775,-1.6753,-1.6738,-1.6749,-1.6696,-1.6708,-1.6687,-1.6687,-1.6674,-1.6675,-1.6625,-1.6667,-1.6668,-1.6668,-1.6668,0,-1.7011,-1.6982,-1.6962,-1.6941,-1.6908,-1.6896,-1.6864,-1.685,-1.6828,-1.6804,-1.6798,-1.6775,-1.6759,-1.6734,-1.6723,-1.6688,-1.6681,-1.6673,-1.667,-1.6672,-1.6673,-1.666,-1.6662,-1.6666,-1.6667,-1.6667,-1.6667,0,-1.6981,-1.6966,-1.6929,-1.6902,-1.6894,-1.6871,-1.6848,-1.6826,-1.6814,-1.6783,-1.6775,-1.6754,-1.6724,-1.6708,-1.667,-1.6663,-1.6623,-1.6623,-1.6631,-1.663,-1.6609,-1.6611,-1.6548,-1.6539,-1.6589,-1.6588,-1.6588,0,-1.6956,-1.6934,-1.6905,-1.6888,-1.6874,-1.6847,-1.6829,-1.6816,-1.6798,-1.6768,-1.675,-1.6719,-1.6694,-1.6646,-1.6627,-1.6598,-1.6596,-1.6576,-1.6591,-1.6594,-1.6593,-1.6594,-1.6591,-1.6572,-1.6572,-1.6572,-1.6571,0,-1.6913,-1.6907,-1.6882,-1.6854,-1.6833,-1.681,-1.6788,-1.6774,-1.6757,-1.6737,-1.6706,-1.6686,-1.6648,-1.6617,-1.6587,-1.6571,-1.6568,-1.6567,-1.656,-1.6561,-1.6567,-1.6562,-1.6622,-1.6568,-1.6568,-1.6568,-1.6569,-1.6569,-1.6884,-1.6864,-1.684,-1.6811,-1.6793,-1.6772,-1.6751,-1.6735,-1.671,-1.6677,-1.6671,-1.6638,-1.6613,-1.6572,-1.6556,-1.6529,-1.6533,-1.6524,-1.6521,-1.6519,-1.6517,-1.6573,-1.6524,-1.6524,-1.6524,-1.6524,-1.6524,0,-1.6839,-1.6824,-1.6798,-1.6767,-1.6744,-1.6744,-1.6719,-1.67,-1.6671,-1.6649,-1.6624,-1.6588,-1.6558,-1.6537,-1.6507,-1.649,-1.6487,-1.6482,-1.6482,-1.6478,-1.6516,-1.6524,-1.6484,-1.6484,-1.6484,-1.6484,-1.6484,-1.6484,-1.6813,-1.6778,-1.6769,-1.6725,-1.671,-1.6677,-1.6663,-1.6643,-1.6625,-1.6585,-1.656,-1.6547,-1.6525,-1.6493,-1.6465,-1.646,-1.6448,-1.6442,-1.6437,-1.6472,-1.6476,-1.648,-1.6487,-1.644,-1.644,-1.6401,-1.6401,-1.64]}]]